Showing default

OPS 3662 (VELA 3), 836

Orbit data source: Space-Track

OPS 3662 (VELA 3), 836 is a payload satellite owned by USAF SSD (US) in HEO that was launched on Fri, 17 Jul 1964 UTC via an ATLAS AGENA D launch vehicle from the Air Force Eastern Test Range (AFETR). Payloads include a variety of satellites, spacecraft, and rockets equipped with specific instruments for various scientific and technological missions. These include communications satellites like Starlink; space stations such as the ISS; scientific satellites like the Hubble; Earth observation satellites from companies like Planet Labs, Umbra, and HawkEye 360; GPS; miniature CubeSats for education and research; and military/defense satellites.

Loading next visibility...
OPS 3662 (VELA 3) details
Identifier
836, 1964-040A
Orbit
HEO
Last TLE update3 months ago
Origin
Flag of USUSAF SSD (US)
ManufacturerTRW
MissionDefense Early Warn
Bus & MotorVELA, BE-3
Mass~227 kg wet, 125 kg dry
Launch date (UTC)
1964-07-17 (61 years ago)
Launch vehicle
ATLAS AGENA D
Launch site
Air Force Eastern Test Range (AFETR)
Object type
Payload
Rocket body
Debris
Shape & HBRPoly, 1.4 m
Radar Cross Section2.240 m², Medium (>0.1 m² and < 1m²)

Expand to show TLE details & history

TLE from 3 months ago
0 OPS 3662 (VELA 3)
1 00836U 64040A   24292.82585033  .00000653  00000-0  00000-0 0  9998
2 00836  49.4634 131.0708 4760931 300.8296   0.4763  0.23903997  9547
Epoch: 2024-10-18T19:49Z
Definitive object data (Epoch: 2024-10-18T19:49:13.468Z)
Latitude-39.91546°
Longitude120.03654°
Altitude51,041.523 km
Speed3.202 km/s
True Right ascension05h 40m 31s
True Declination-39° 53' 40"
Sunlit
Object was in daylight at TLE epoch
Visualization TLE readout
Latitude39.65327°
Longitude-153.22942°
Altitude104,281.493 km
Speed1.889 km/s
Apparent Right ascension11h 14m 26s
Apparent Declination37° 47' 03"
Sunlit
Object is in daylight
Visualization observer readout
Local Sidereal Time17:49:19
Azimuth304.992° NW
Elevation17.53°
Doppler factor1
Orbital elements
Apogee altitude155,505.326 km
Perigee altitude51,078.851 km
Semi-major axis109,670.225 km
Eccentricity0.4760931
Inclination49.4634°
RAAN131.0708°
Arg. of periapsis300.8296°
True anomaly1.52589°
Mean anomaly0.4763°
Eccentric anomaly0.9091°
Mean motion0.05976 °/min
BSTARUnknown
Orbital period6024.1 mins
Loading maneuver chart data...
Loading historical data...
Loading historical data...
Loading historical data...
Loading historical data...
Loading historical data...
Loading historical data...
Loading historical data...
Other satellites on launch #40 in the year 1964 (1964-07-17 UTC)

OPS 3662 (VELA 3) Visibility forecast

Observer location: undefined°, undefined

Span
Click to sort rows by Start time (UTC) header in descending order
Start Az.
Max El. time (UTC)
Max El. Az.
Max El.
End time (UTC)
End Az.
75 mins2025-01-23 16:36:44.134Z304.987° NW2025-01-23 16:36:44.134Z304.987° NW16.762°2025-01-23 17:51:44.134Z313.9° NW
725 mins2025-01-24 04:31:44.134Z33.217° NE2025-01-24 14:34:44.134Z356.526° N44.601°2025-01-24 16:36:44.134Z302.295° NW
|